EW2167 Weather Reports


Display with metric or nautical units.
time (UTC)temp
F
wind
direction
speed
MPH
gust
MPH
rain 1hr
in
rain 24hr
in
rain mn
in
humidity
%
barometer
mb
20260902031538 75 0 0.0 0.0 0.00 0.00 0.00 89 1017.7
20260902030042 76 0 0.0 0.0 0.00 0.00 0.00 88 1017.7
20260902024534 76 0 0.0 1.0 0.00 0.00 0.00 89 1017.7
20260902023042 76 0 0.0 2.0 0.00 0.00 0.00 88 1017.7
20260902021546 77 0 0.0 3.0 0.00 0.00 0.00 87 1017.6
20260902020036 77 0 0.0 1.0 0.00 0.00 0.00 86 1017.7
20260902014542 77 0 0.0 1.0 0.00 0.00 0.00 86 1017.7
20260902013038 78 0 0.0 1.0 0.00 0.00 0.00 85 1017.7
20260902011538 78 0 0.0 2.0 0.00 0.00 0.00 85 1017.6
20260902010035 79 0 0.0 1.0 0.00 0.00 0.00 83 1017.4
20260902004540 79 0 0.0 1.0 0.00 0.00 0.00 82 1017.3
20260902003042 80 208 0.0 2.0 0.00 0.00 0.00 81 1017.3
20260902001534 81 0 0.0 1.0 0.00 0.00 0.00 82 1017.4
20260902000037 82 0 0.0 1.0 0.00 0.00 0.00 79 1017.5
20260901234537 83 0 0.0 0.0 0.00 0.00 0.00 79 1017.4
20260901233037 85 0 0.0 2.0 0.00 0.00 0.00 74 1017.5
20260901231537 86 0 0.0 2.0 0.00 0.00 0.00 72 1017.5
20260901230037 88 0 0.0 2.0 0.00 0.00 0.00 67 1017.5
20260901224536 90 208 2.0 6.0 0.00 0.00 0.00 62 1017.5
20260901223038 91 231 2.0 8.0 0.00 0.00 0.00 61 1017.5
20260901221536 91 207 2.0 7.0 0.00 0.00 0.00 61 1017.5
20260901220057 91 205 1.0 7.0 0.00 0.00 0.00 60 1017.4
20260901214535 92 207 3.0 7.0 0.00 0.00 0.00 59 1017.4
20260901213102 92 234 2.0 7.0 0.00 0.00 0.00 60 1017.4
20260901211535 92 224 3.0 11.0 0.00 0.00 0.00 59 1017.5
20260901210044 92 227 2.0 9.0 0.00 0.00 0.00 60 1017.5
20260901204540 92 234 2.0 8.0 0.00 0.00 0.00 58 1017.7
20260901203052 92 223 4.0 9.0 0.00 0.00 0.00 59 1017.8
20260901201535 93 230 3.0 9.0 0.00 0.00 0.00 58 1017.8
20260901200043 92 244 3.0 10.0 0.00 0.00 0.00 62 1017.8
20260901194542 92 238 3.0 10.0 0.00 0.00 0.00 62 1017.8
20260901193042 92 232 3.0 9.0 0.00 0.00 0.00 56 1018.0
20260901191538 92 218 3.0 12.0 0.00 0.00 0.00 61 1018.3
20260901190037 92 230 2.0 12.0 0.00 0.00 0.00 61 1018.4
20260901184536 92 232 3.0 11.0 0.00 0.00 0.00 61 1018.7
20260901183046 92 238 3.0 9.0 0.00 0.00 0.00 62 1018.7
20260901181538 91 259 2.0 12.0 0.00 0.00 0.00 62 1018.7
20260901180035 92 248 3.0 11.0 0.00 0.00 0.00 64 1018.8
20260901174538 91 236 2.0 7.0 0.00 0.00 0.00 63 1018.8
20260901173050 90 246 3.0 9.0 0.00 0.00 0.00 62 1018.9
20260901171539 90 207 2.0 12.0 0.00 0.00 0.00 68 1019.0
20260901170038 89 242 4.0 10.0 0.00 0.00 0.00 66 1019.0
20260901164535 89 216 4.0 12.0 0.00 0.00 0.00 67 1019.1
20260901163035 89 221 6.0 11.0 0.00 0.00 0.00 67 1019.2
20260901161538 89 246 5.0 13.0 0.00 0.00 0.00 66 1019.4
20260901160034 88 237 3.0 8.0 0.00 0.00 0.00 68 1019.4
20260901154538 87 0 3.0 10.0 0.00 0.00 0.00 71 1019.5
20260901153039 87 227 3.0 11.0 0.00 0.00 0.00 70 1019.6
20260901151537 86 213 5.0 12.0 0.00 0.00 0.00 71 1019.6
20260901150037 85 249 2.0 12.0 0.00 0.00 0.00 74 1019.5
20260901144537 84 238 2.0 5.0 0.00 0.00 0.00 76 1019.5
20260901143043 83 214 0.0 7.0 0.00 0.00 0.00 79 1019.6
20260901141540 82 248 1.0 7.0 0.00 0.00 0.00 80 1019.8
20260901140051 80 223 2.0 8.0 0.00 0.00 0.00 81 1019.7
20260901134538 79 0 0.0 7.0 0.00 0.00 0.00 82 1019.7
20260901133041 78 213 4.0 9.0 0.00 0.00 0.00 83 1019.7
20260901131538 76 218 2.0 5.0 0.00 0.00 0.00 86 1019.4
20260901130043 75 211 1.0 5.0 0.00 0.00 0.00 89 1019.8
20260901124537 74 209 1.0 4.0 0.00 0.00 0.00 91 1019.9
20260901123036 72 217 1.0 4.0 0.00 0.00 0.00 93 1019.8
20260901121537 71 223 1.0 3.0 0.00 0.00 0.00 94 1019.7
20260901120049 70 230 1.0 3.0 0.00 0.00 0.00 95 1019.6
20260901114535 69 0 0.0 2.0 0.00 0.00 0.00 95 1019.5
20260901113043 69 0 0.0 1.0 0.00 0.00 0.00 94 1019.2
20260901111539 68 0 0.0 0.0 0.00 0.00 0.00 94 1019.1
20260901110045 69 0 0.0 1.0 0.00 0.00 0.00 94 1018.8
20260901104537 69 0 0.0 1.0 0.00 0.00 0.00 94 1018.7
20260901103037 69 0 0.0 0.0 0.00 0.00 0.00 94 1018.6
20260901101534 69 0 0.0 0.0 0.00 0.00 0.00 94 1018.4
20260901100039 69 0 0.0 2.0 0.00 0.00 0.00 94 1018.3
20260901094540 70 0 0.0 0.0 0.00 0.00 0.00 94 1018.3
20260901093035 70 0 0.0 2.0 0.00 0.00 0.00 94 1018.2
20260901091537 70 0 0.0 2.0 0.00 0.00 0.00 93 1018.2
20260901090036 71 0 0.0 2.0 0.00 0.00 0.00 93 1017.9
20260901084535 71 0 0.0 2.0 0.00 0.00 0.00 93 1017.9
20260901083036 71 0 0.0 0.0 0.00 0.00 0.00 93 1017.8
20260901081537 71 0 0.0 1.0 0.00 0.00 0.00 92 1017.8
20260901080038 72 0 0.0 0.0 0.00 0.00 0.00 92 1017.7
20260901074535 72 0 0.0 1.0 0.00 0.00 0.00 91 1017.5
20260901073037 73 0 0.0 4.0 0.00 0.00 0.00 89 1017.5
20260901071538 74 223 2.0 5.0 0.00 0.00 0.00 89 1017.4
20260901070036 74 238 3.0 6.0 0.00 0.00 0.00 89 1017.4
20260901064535 74 215 3.0 9.0 0.00 0.00 0.00 90 1017.4
20260901063038 74 227 2.0 8.0 0.00 0.00 0.00 91 1017.6
20260901061538 73 217 2.0 6.0 0.00 0.00 0.00 92 1017.6
20260901060034 73 209 2.0 5.0 0.00 0.00 0.00 93 1017.8
20260901054538 73 214 2.0 4.0 0.00 0.00 0.00 93 1018.0
20260901053054 73 0 0.0 2.0 0.00 0.00 0.00 93 1018.2
20260901051548 73 0 0.0 1.0 0.00 0.00 0.00 93 1018.3
20260901050036 73 0 0.0 1.0 0.00 0.00 0.00 92 1018.4
20260901044542 74 232 0.0 1.0 0.00 0.00 0.00 92 1018.5
20260901043036 74 0 0.0 0.0 0.00 0.00 0.00 91 1018.4
20260901041538 74 0 0.0 0.0 0.00 0.00 0.00 91 1018.5
20260901040044 74 0 0.0 1.0 0.00 0.00 0.00 91 1018.5
20260901034533 74 0 0.0 0.0 0.00 0.00 0.00 91 1018.4
20260901033036 74 0 0.0 0.0 0.00 0.00 0.00 91 1018.5